This is the latest recevied weather packets stored in our database for station/object KK7HEZ. If no packets are shown the sender has not sent any weather packets the latest 1 day(s).
| Time | Temp. | Humidity | Pressure | Rain* | Wind** | Luminosity | Snow |
|---|---|---|---|---|---|---|---|
| 1778081777 | 12.78° C | 91% | 1020.3 hPa | 0 mm | - | 39 W/m² | - |
| 1778080264 | 12.22° C | 93% | 1020.7 hPa | 0 mm | - | 36 W/m² | - |
| 1778079961 | 12.22° C | 92% | 1020.7 hPa | 0 mm | - | 31 W/m² | - |
| 1778079052 | 12.22° C | 91% | 1020.5 hPa | 0 mm | - | 23 W/m² | - |
| 1778076027 | 12.22° C | 92% | 1020.2 hPa | 0 mm | - | 7 W/m² | - |
| 1778073601 | 12.22° C | 92% | 1020.1 hPa | 0 mm | - | 0 W/m² | - |
| 1778072087 | 12.22° C | 92% | 1019.7 hPa | 0 mm | - | 0 W/m² | - |
| 1778069970 | 12.22° C | 92% | 1019.6 hPa | 0 mm | - | 0 W/m² | - |
| 1778069061 | 12.22° C | 92% | 1019.4 hPa | 0 mm | - | 0 W/m² | - |
| 1778068758 | 12.22° C | 92% | 1019.5 hPa | 0 mm | - | 0 W/m² | - |
| 1778068456 | 12.22° C | 92% | 1019.8 hPa | 0 mm | - | 0 W/m² | - |
| 1778067550 | 12.22° C | 92% | 1019.5 hPa | 0 mm | - | 0 W/m² | - |
| 1778064219 | 11.67° C | 94% | 1018.9 hPa | 0 mm | - | 0 W/m² | - |
| 1778063311 | 11.67° C | 95% | 1018.7 hPa | 0 mm | - | 0 W/m² | - |
| 1778063009 | 11.67° C | 96% | 1018.7 hPa | 0 mm | - | 0 W/m² | - |
| 1778062706 | 11.67° C | 96% | 1018.8 hPa | 0 mm | - | 0 W/m² | - |
| 1778062100 | 11.11° C | 96% | 1018.5 hPa | 0 mm | - | 0 W/m² | - |
| 1778061496 | 11.11° C | 96% | 1018.7 hPa | 0 mm | - | 0 W/m² | - |
| 1778060286 | 11.11° C | 95% | 1018.6 hPa | 0 mm | - | 0 W/m² | - |
| 1778059681 | 11.11° C | 95% | 1018.5 hPa | 0 mm | - | 0 W/m² | - |
| 1778058773 | 11.11° C | 95% | 1018.4 hPa | 0 mm | - | 0 W/m² | - |
| 1778057864 | 11.67° C | 95% | 1018.4 hPa | 0 mm | - | 0 W/m² | - |
| 1778057257 | 11.67° C | 95% | 1018.5 hPa | 0 mm | - | 0 W/m² | - |
| 1778056348 | 11.67° C | 94% | 1018.2 hPa | 0 mm | - | 0 W/m² | - |
| 1778055439 | 11.67° C | 94% | 1018 hPa | 0 mm | - | 0 W/m² | - |
* Rain latest hour (hover to see other rain measurements)
** Current wind speed in m/s (hover to see current wind gust speed)